RADUGA 30

Satellite information

Favourite Embed

Satellite Type and Status

PAYLOADIN ORBIT

Key statistics

Satellite RADUGA 30 at a glance.

Uptime

11664

Days in orbit

Revolutions

≈ 1.0

Per day

Orbit

OTHER

Other

Inclination

14.1

Latest

Satellite identification and parameters

Extended collection of information and parameters for RADUGA 30.

Object identification

Identified? True

Debris? False

Object name: RADUGA 30

International designator: 1993-062A

Object number (NORAD): 22836

Object ID (CCSDS): 22836

Country: COMMONWEALTH OF INDEPENDENT STATES (CIS)

Current information (Y/N): Y

RCS size: MEDIUM

Orbital parameters

Period: 1435.892 minutes

Inclination: 14.1461 deg

SMA: 42160.726 km

Apoapsis: 35800.297 km

Periapsis: 35764.885 km

RAAN: 349.2437 deg

Eccentricy: 0.00041996

Argument of periapsis: 296.0405 deg

Mean anomaly: 69.114 deg

Mean motion: 1.00286077 rev/day

Mean motion (dot): -0.00000093 rev/day2

B* drag term: 0.0 1/REarth

Two-line elements (TLE)

Creation date: Sept. 6, 2025, 2:09 a.m.

Reference frame: TEME

Reference center: EARTH

Epoch: Sept. 5, 2025, 7:43 p.m. UTC

TLE line 0: 0 RADUGA 30

TLE line 1: 1 22836U 93062A 25248.82158881 -.00000093 00000-0 00000-0 0 9996

TLE line 2: 2 22836 14.1461 349.2437 0004200 296.0405 69.1140 1.00286077 43159

Live tracking on map

Real-time ground track for satellite RADUGA 30.

In-orbit conjunctions

A list of the most updated potential collisions computed for object RADUGA 30.

Target Orbit TCA Probability of collision Miss distance Type
COSMOS 1700 OTHER 2025-05-12 18:18:07 TBA 1892.0 (m) PAYLOAD

Associated space launch

Geostationary communications satellite for military and governmental puposes

RADUGA 30 was lifted into orbit during the mission ‘Proton | Raduga 30’, on board a Proton space rocket.

The launch took place on Sept. 30, 1993, 5:05 p.m. from 81/23 (81L).

For more information about the launch, click the button.

Launch to space Proton | Raduga 30
Proton | Raduga 30

Agency: N/A

Status: Launch Successful

Launch date: Sept. 30, 1993, 5:05 p.m. UTC

Rocket: Proton

Launch pad: 81/23 (81L)

Location: Baikonur Cosmodrome, Republic of Kazakhstan

...

Latest news about this satellite

There are no fresh news available about this satellite. Check back as we update our databases every day.


Newsletter sign-up

Weekly statistics, charts and insights to help you stay on top of the space industry.